Location: G�rlitz
(51.1670°N, 15.0000°E)
Time: 20:42:38
(UTC+01:00)

Envisat - Pass Details

Date: 22 February 2026
Orbit: 761 x 763 km, 98.4° (Epoch: 11 March)

Event Time Altitude Azimuth Distance (km) Brightness Sun altitude
Rises 02:05:09 0° 20° (NNE) 3,237 7.0 -43.2°
Reaches altitude 10° 02:07:39 10° 29° (NNE) 2,306 6.1 -42.9°
Enters shadow 02:08:17 13° 33° (NNE) 2,080 5.8 -42.8°
